QPF
0.00 0.00 0.00 0.00 0.00 0.00 0.00 0.00 0.00 0.00 0.00 0.00 0.00 0.00 0.00 0.00 0.00 0.00 0.00 0.00 0.00 0.00 0.00 0.00 0.00 0.00 0.00 0.00 0.00 0.00 0.00 0.00 0.00 0.00 0.00 0.00 0.00 0.00 0.00 0.00 0.00 0.00 0.00 0.00
0.00 0.00 0.00 0.00 0.00 0.00 0.00 0.00 0.00 0.00 0.00 0.00 0.00 0.00 0.00 0.00 0.00 0.00 0.00 0.00 0.00 0.00 0.00 0.00 0.00 0.00 0.00 0.00 0.00 0.00 0.00 0.00 0.00 0.00 0.00 0.00 0.00 0.00 0.00 0.00 0.00 0.00 0.00 0.00
0.00 0.00 0.00 0.00 0.00 0.00 0.00 0.00 0.00 0.00 0.00 0.00 0.00 0.00 0.00 0.00 0.00 0.00 0.00 0.00 0.00 0.00 0.00 0.00 0.00 0.00 0.00 0.00 0.00 0.00 0.00 0.00 0.00 0.00 0.00 0.00 0.00 0.00 0.00 0.00 0.00 0.00 0.00 0.00
0.00 0.00 0.00 0.00 0.00 0.00 0.00 0.00 0.00 0.00 0.00 0.00 0.00 0.00 0.00 0.00 0.00 0.00 0.00 0.00 0.00 0.00 0.00 0.00 0.00 0.00 0.00 0.00 0.00 0.00 0.00 0.00 0.00 0.00 0.00 0.00 0.00 0.00 0.00 0.00 0.00 0.00 0.00 0.00
0.00 0.00 0.00 0.00 0.00 0.00 0.00 0.00 0.00 0.00 0.00 0.00 0.00 0.00 0.00 0.00 0.00 0.00 0.00 0.00 0.00 0.00 0.00 0.00 0.00 0.00 0.00 0.00 0.00 0.00 0.00 0.00 0.00 0.00 0.00 0.00 0.00 0.00 0.00 0.00 0.00 0.00 0.00 0.00
0.00 0.00 0.00 0.00 0.00 0.00 0.00 0.00 0.00 0.00 0.00 0.00 0.00 0.00 0.00 0.00 0.00 0.00 0.00 0.00 0.00 0.00 0.00 0.00 0.00 0.00 0.00 0.00 0.00 0.00 0.00 0.00 0.00 0.00 0.00 0.00 0.00 0.00 0.00 0.00 0.00 0.00 0.00 0.00
0.00 0.00 0.00 0.00 0.00 0.00 0.00 0.00 0.00 0.00 0.00 0.00 0.00 0.00 0.00 0.00 0.00 0.00 0.00 0.00 0.00 0.00 0.00 0.00 0.00 0.00 0.00 0.00 0.00 0.00 0.00 0.00 0.00 0.00 0.00 0.00 0.00 0.00 0.00 0.00 0.00 0.00 0.00 0.00
0.00 0.00 0.00 0.00 0.00 0.00 0.00 0.00 0.00 0.00 0.00 0.00 0.00 0.00 0.00 0.00 0.00 0.00 0.00 0.00 0.00 0.00 0.00 0.00 0.00 0.00 0.00 0.00 0.00 0.00 0.00 0.00 0.00 0.00 0.00 0.00 0.00 0.00 0.00 0.00 0.00 0.00 0.00 0.00
0.00 0.00 0.00 0.00 0.00 0.00 0.00 0.00 0.00 0.00 0.00 0.00 0.00 0.00 0.00 0.00 0.00 0.00 0.00 0.00 0.00 0.00 0.00 0.00 0.00 0.00 0.00 0.00 0.00 0.00 0.00 0.00 0.00 0.00 0.01 0.01 0.01 0.01 0.01 0.00 0.00 0.00 0.00 0.00
0.00 0.00 0.00 0.00 0.00 0.00 0.00 0.00 0.00 0.00 0.00 0.00 0.00 0.00 0.00 0.00 0.00 0.00 0.00 0.00 0.00 0.00 0.00 0.00 0.00 0.00 0.00 0.00 0.00 0.00 0.00 0.00 0.00 0.01 0.01 0.01 0.01 0.01 0.01 0.00 0.00 0.00 0.00 0.00
0.00 0.00 0.00 0.00 0.00 0.00 0.00 0.00 0.00 0.00 0.00 0.00 0.00 0.00 0.00 0.00 0.00 0.00 0.00 0.00 0.00 0.00 0.00 0.00 0.00 0.00 0.00 0.00 0.00 0.00 0.00 0.00 0.01 0.01 0.01 0.01 0.01 0.01 0.01 0.00 0.00 0.00 0.00 0.00
0.00 0.00 0.00 0.00 0.00 0.00 0.00 0.00 0.00 0.00 0.00 0.00 0.00 0.00 0.00 0.00 0.00 0.00 0.00 0.00 0.00 0.00 0.00 0.00 0.00 0.00 0.00 0.00 0.00 0.00 0.00 0.01 0.01 0.01 0.01 0.01 0.01 0.01 0.01 0.00 0.00 0.00 0.00 0.00
0.00 0.00 0.00 0.00 0.00 0.00 0.00 0.00 0.00 0.00 0.00 0.00 0.00 0.00 0.00 0.00 0.00 0.00 0.00 0.00 0.00 0.00 0.00 0.00 0.00 0.00 0.00 0.00 0.00 0.00 0.00 0.01 0.01 0.01 0.02 0.02 0.01 0.01 0.01 0.01 0.00 0.00 0.00 0.00
0.00 0.00 0.00 0.00 0.00 0.00 0.00 0.00 0.00 0.00 0.00 0.00 0.00 0.00 0.00 0.00 0.00 0.00 0.00 0.00 0.00 0.00 0.00 0.00 0.00 0.00 0.00 0.00 0.00 0.00 0.00 0.01 0.01 0.02 0.02 0.02 0.02 0.01 0.01 0.01 0.00 0.00 0.00 0.00
0.00 0.00 0.00 0.00 0.00 0.00 0.00 0.00 0.00 0.00 0.00 0.00 0.00 0.00 0.00 0.00 0.00 0.00 0.00 0.00 0.00 0.00 0.00 0.00 0.00 0.00 0.00 0.00 0.00 0.00 0.00 0.01 0.01 0.02 0.02 0.02 0.02 0.02 0.01 0.01 0.00 0.00 0.00 0.00
0.00 0.00 0.00 0.00 0.00 0.00 0.00 0.00 0.00 0.00 0.00 0.00 0.00 0.00 0.00 0.00 0.00 0.00 0.00 0.00 0.00 0.00 0.00 0.00 0.00 0.00 0.00 0.00 0.00 0.00 0.00 0.01 0.01 0.01 0.02 0.02 0.02 0.02 0.01 0.01 0.00 0.00 0.00 0.00
0.00 0.00 0.00 0.00 0.00 0.00 0.00 0.00 0.00 0.00 0.00 0.00 0.00 0.00 0.00 0.00 0.00 0.00 0.00 0.00 0.00 0.00 0.00 0.00 0.00 0.00 0.00 0.00 0.00 0.00 0.00 0.01 0.01 0.01 0.01 0.02 0.02 0.02 0.01 0.01 0.00 0.00 0.00 0.00
0.00 0.00 0.00 0.00 0.00 0.00 0.00 0.00 0.00 0.00 0.00 0.00 0.00 0.00 0.00 0.00 0.00 0.00 0.00 0.00 0.00 0.00 0.00 0.00 0.00 0.00 0.00 0.00 0.00 0.00 0.00 0.01 0.01 0.01 0.02 0.02 0.02 0.01 0.01 0.01 0.00 0.00 0.00 0.00
0.00 0.00 0.00 0.00 0.00 0.00 0.00 0.00 0.00 0.00 0.00 0.00 0.00 0.00 0.00 0.00 0.00 0.00 0.00 0.00 0.00 0.00 0.00 0.00 0.00 0.00 0.00 0.00 0.00 0.00 0.01 0.01 0.01 0.01 0.02 0.02 0.02 0.01 0.01 0.00 0.00 0.00 0.00 0.00
0.00 0.00 0.00 0.00 0.00 0.00 0.00 0.00 0.00 0.00 0.00 0.00 0.00 0.00 0.00 0.00 0.00 0.00 0.00 0.00 0.00 0.00 0.00 0.00 0.00 0.00 0.00 0.00 0.00 0.00 0.01 0.01 0.02 0.02 0.02 0.02 0.02 0.01 0.01 0.00 0.00 0.00 0.00 0.00
0.00 0.00 0.00 0.00 0.00 0.00 0.00 0.00 0.00 0.00 0.00 0.00 0.00 0.00 0.00 0.00 0.00 0.00 0.00 0.00 0.00 0.00 0.00 0.00 0.00 0.00 0.00 0.00 0.00 0.01 0.01 0.02 0.02 0.02 0.02 0.02 0.02 0.02 0.01 0.00 0.00 0.00 0.00 0.00
0.00 0.00 0.00 0.00 0.00 0.00 0.00 0.00 0.00 0.00 0.00 0.00 0.00 0.00 0.00 0.00 0.00 0.00 0.00 0.00 0.00 0.00 0.00 0.00 0.00 0.00 0.00 0.00 0.01 0.01 0.02 0.02 0.02 0.02 0.02 0.02 0.02 0.02 0.01 0.00 0.00 0.00 0.00 0.00
0.00 0.00 0.00 0.00 0.00 0.00 0.00 0.00 0.00 0.00 0.00 0.00 0.00 0.00 0.00 0.00 0.01 0.01 0.01 0.00 0.01 0.01 0.01 0.01 0.01 0.01 0.01 0.01 0.01 0.02 0.02 0.03 0.03 0.03 0.03 0.03 0.02 0.02 0.01 0.00 0.00 0.00 0.00 0.00
0.00 0.00 0.00 0.00 0.00 0.00 0.00 0.00 0.00 0.00 0.00 0.00 0.00 0.00 0.01 0.01 0.01 0.01 0.01 0.01 0.02 0.02 0.01 0.01 0.01 0.01 0.02 0.02 0.02 0.03 0.03 0.04 0.04 0.03 0.03 0.03 0.03 0.02 0.01 0.00 0.00 0.00 0.00 0.00
0.00 0.00 0.00 0.00 0.00 0.00 0.00 0.00 0.00 0.00 0.00 0.00 0.00 0.01 0.01 0.01 0.01 0.02 0.02 0.02 0.02 0.02 0.02 0.01 0.02 0.02 0.03 0.03 0.03 0.04 0.04 0.04 0.04 0.04 0.03 0.03 0.03 0.02 0.01 0.01 0.00 0.00 0.00 0.00
0.00 0.00 0.00 0.00 0.00 0.00 0.00 0.00 0.00 0.00 0.00 0.00 0.00 0.00 0.01 0.01 0.02 0.02 0.02 0.02 0.02 0.02 0.02 0.02 0.03 0.03 0.04 0.04 0.04 0.05 0.05 0.05 0.05 0.04 0.04 0.03 0.03 0.02 0.01 0.01 0.00 0.00 0.00 0.00
0.00 0.00 0.00 0.00 0.00 0.00 0.00 0.00 0.00 0.00 0.00 0.00 0.00 0.01 0.01 0.02 0.02 0.02 0.03 0.03 0.03 0.03 0.03 0.04 0.04 0.04 0.05 0.06 0.06 0.07 0.07 0.07 0.06 0.05 0.04 0.03 0.03 0.02 0.01 0.01 0.00 0.00 0.00 0.00
MSLP
1022.32 1022.11 1021.85 1021.52 1021.12 1020.61 1019.98 1019.22 1018.33 1017.33 1016.25 1015.16 1014.12 1013.20 1012.45 1011.93 1011.64 1011.58 1011.73 1012.05 1012.48 1012.99 1013.53 1014.11 1014.69 1015.30 1015.93 1016.60 1017.29 1018.01 1018.73 1019.44 1020.10 1020.69 1021.20 1021.62 1021.95 1022.21 1022.39 1022.51 1022.57 1022.57 1022.50 1022.33
1022.26 1021.89 1021.42 1020.85 1020.19 1019.47 1018.67 1017.82 1016.92 1015.98 1015.04 1014.12 1013.26 1012.51 1011.89 1011.43 1011.13 1011.01 1011.03 1011.19 1011.46 1011.83 1012.27 1012.77 1013.34 1013.97 1014.65 1015.39 1016.16 1016.95 1017.73 1018.47 1019.15 1019.76 1020.27 1020.70 1021.04 1021.31 1021.51 1021.65 1021.73 1021.75 1021.68 1021.53
1022.21 1021.69 1021.02 1020.23 1019.36 1018.44 1017.50 1016.57 1015.65 1014.77 1013.94 1013.18 1012.48 1011.87 1011.35 1010.93 1010.62 1010.41 1010.32 1010.33 1010.45 1010.67 1011.00 1011.44 1011.98 1012.61 1013.34 1014.13 1014.96 1015.81 1016.64 1017.42 1018.13 1018.77 1019.30 1019.76 1020.13 1020.42 1020.66 1020.83 1020.95 1020.99 1020.94 1020.79
1022.09 1021.44 1020.61 1019.64 1018.60 1017.52 1016.47 1015.47 1014.55 1013.72 1012.99 1012.34 1011.77 1011.26 1010.82 1010.43 1010.09 1009.82 1009.62 1009.50 1009.48 1009.58 1009.81 1010.18 1010.68 1011.31 1012.05 1012.87 1013.74 1014.63 1015.49 1016.31 1017.06 1017.73 1018.31 1018.80 1019.22 1019.57 1019.86 1020.08 1020.23 1020.30 1020.27 1020.14
1021.81 1021.04 1020.08 1018.98 1017.81 1016.64 1015.51 1014.48 1013.57 1012.78 1012.12 1011.56 1011.09 1010.67 1010.28 1009.91 1009.56 1009.23 1008.94 1008.72 1008.60 1008.60 1008.75 1009.05 1009.51 1010.11 1010.84 1011.67 1012.55 1013.45 1014.34 1015.18 1015.96 1016.67 1017.30 1017.85 1018.33 1018.74 1019.09 1019.37 1019.57 1019.67 1019.66 1019.54
1021.25 1020.39 1019.34 1018.17 1016.93 1015.71 1014.56 1013.52 1012.63 1011.89 1011.30 1010.81 1010.41 1010.05 1009.70 1009.35 1008.99 1008.62 1008.29 1008.00 1007.81 1007.74 1007.82 1008.07 1008.49 1009.05 1009.76 1010.56 1011.43 1012.32 1013.21 1014.06 1014.86 1015.60 1016.28 1016.89 1017.44 1017.92 1018.33 1018.67 1018.91 1019.05 1019.06 1018.94
1020.33 1019.41 1018.33 1017.13 1015.89 1014.67 1013.54 1012.55 1011.70 1011.02 1010.48 1010.06 1009.71 1009.39 1009.07 1008.74 1008.38 1008.01 1007.64 1007.33 1007.10 1006.99 1007.03 1007.23 1007.60 1008.13 1008.79 1009.55 1010.38 1011.25 1012.11 1012.96 1013.77 1014.54 1015.26 1015.93 1016.53 1017.08 1017.55 1017.93 1018.21 1018.37 1018.41 1018.30
1019.05 1018.11 1017.03 1015.86 1014.67 1013.52 1012.47 1011.55 1010.78 1010.16 1009.68 1009.30 1008.99 1008.70 1008.41 1008.09 1007.73 1007.36 1007.00 1006.68 1006.44 1006.31 1006.33 1006.50 1006.83 1007.31 1007.92 1008.63 1009.41 1010.23 1011.07 1011.90 1012.71 1013.49 1014.24 1014.95 1015.60 1016.19 1016.70 1017.12 1017.43 1017.61 1017.66 1017.57
1017.48 1016.54 1015.51 1014.43 1013.35 1012.32 1011.38 1010.56 1009.89 1009.35 1008.93 1008.59 1008.30 1008.03 1007.74 1007.43 1007.08 1006.71 1006.35 1006.03 1005.79 1005.66 1005.66 1005.81 1006.10 1006.54 1007.09 1007.75 1008.48 1009.25 1010.05 1010.86 1011.67 1012.45 1013.22 1013.95 1014.63 1015.25 1015.78 1016.22 1016.55 1016.75 1016.81 1016.74
1015.73 1014.85 1013.91 1012.96 1012.02 1011.15 1010.36 1009.68 1009.12 1008.66 1008.29 1007.99 1007.71 1007.43 1007.13 1006.81 1006.45 1006.08 1005.72 1005.40 1005.15 1005.01 1004.99 1005.11 1005.37 1005.76 1006.27 1006.87 1007.55 1008.29 1009.05 1009.84 1010.63 1011.42 1012.19 1012.93 1013.62 1014.25 1014.80 1015.25 1015.58 1015.79 1015.88 1015.85
1014.01 1013.21 1012.40 1011.61 1010.86 1010.17 1009.55 1009.01 1008.56 1008.18 1007.85 1007.56 1007.27 1006.97 1006.65 1006.28 1005.90 1005.50 1005.12 1004.78 1004.51 1004.34 1004.30 1004.38 1004.60 1004.94 1005.40 1005.96 1006.60 1007.30 1008.05 1008.82 1009.61 1010.39 1011.17 1011.91 1012.60 1013.23 1013.78 1014.23 1014.57 1014.80 1014.91 1014.92
1012.51 1011.82 1011.17 1010.56 1009.99 1009.48 1009.03 1008.63 1008.28 1007.96 1007.67 1007.37 1007.05 1006.71 1006.33 1005.91 1005.47 1005.02 1004.59 1004.20 1003.89 1003.68 1003.58 1003.61 1003.77 1004.07 1004.48 1005.00 1005.61 1006.29 1007.02 1007.79 1008.58 1009.37 1010.15 1010.89 1011.58 1012.21 1012.75 1013.20 1013.55 1013.81 1013.96 1014.03
1011.37 1010.81 1010.33 1009.89 1009.51 1009.17 1008.86 1008.57 1008.30 1008.02 1007.73 1007.41 1007.05 1006.65 1006.20 1005.71 1005.19 1004.67 1004.16 1003.71 1003.32 1003.04 1002.87 1002.83 1002.93 1003.16 1003.52 1004.01 1004.59 1005.26 1006.00 1006.77 1007.57 1008.37 1009.16 1009.90 1010.59 1011.21 1011.75 1012.21 1012.57 1012.86 1013.07 1013.21
1010.67 1010.26 1009.93 1009.65 1009.42 1009.21 1009.01 1008.80 1008.57 1008.31 1008.00 1007.64 1007.22 1006.75 1006.22 1005.65 1005.05 1004.45 1003.86 1003.31 1002.84 1002.46 1002.21 1002.08 1002.10 1002.26 1002.57 1003.02 1003.58 1004.25 1004.98 1005.77 1006.59 1007.40 1008.19 1008.94 1009.63 1010.25 1010.79 1011.25 1011.64 1011.97 1012.24 1012.47
1010.41 1010.14 1009.94 1009.79 1009.67 1009.54 1009.40 1009.22 1009.00 1008.71 1008.37 1007.96 1007.48 1006.94 1006.34 1005.70 1005.03 1004.34 1003.67 1003.03 1002.47 1001.99 1001.64 1001.42 1001.35 1001.44 1001.68 1002.09 1002.63 1003.28 1004.02 1004.82 1005.65 1006.47 1007.27 1008.02 1008.71 1009.32 1009.86 1010.34 1010.76 1011.13 1011.46 1011.77
1010.51 1010.35 1010.25 1010.18 1010.11 1010.02 1009.89 1009.69 1009.43 1009.11 1008.71 1008.25 1007.71 1007.12 1006.47 1005.77 1005.04 1004.30 1003.56 1002.85 1002.19 1001.63 1001.18 1000.86 1000.70 1000.72 1000.90 1001.25 1001.76 1002.40 1003.13 1003.93 1004.77 1005.59 1006.39 1007.14 1007.81 1008.42 1008.96 1009.45 1009.89 1010.30 1010.70 1011.09
1010.85 1010.77 1010.73 1010.69 1010.62 1010.50 1010.32 1010.07 1009.75 1009.36 1008.90 1008.38 1007.81 1007.18 1006.50 1005.78 1005.03 1004.25 1003.47 1002.71 1001.99 1001.35 1000.81 1000.42 1000.18 1000.12 1000.24 1000.54 1001.01 1001.62 1002.34 1003.13 1003.95 1004.77 1005.55 1006.28 1006.94 1007.53 1008.07 1008.55 1009.01 1009.46 1009.91 1010.37
1011.27 1011.23 1011.20 1011.14 1011.03 1010.84 1010.58 1010.24 1009.83 1009.37 1008.85 1008.29 1007.68 1007.04 1006.36 1005.65 1004.90 1004.12 1003.33 1002.55 1001.79 1001.10 1000.51 1000.05 999.74 999.62 999.68 999.93 1000.36 1000.94 1001.63 1002.40 1003.20 1004.00 1004.75 1005.45 1006.08 1006.65 1007.16 1007.64 1008.11 1008.58 1009.07 1009.59
1011.64 1011.61 1011.55 1011.43 1011.23 1010.94 1010.57 1010.12 1009.62 1009.08 1008.50 1007.91 1007.29 1006.66 1006.01 1005.32 1004.61 1003.86 1003.08 1002.30 1001.54 1000.83 1000.20 999.69 999.34 999.17 999.18 999.40 999.79 1000.34 1001.00 1001.73 1002.50 1003.26 1003.98 1004.64 1005.24 1005.77 1006.26 1006.72 1007.18 1007.67 1008.19 1008.75
1011.86 1011.81 1011.69 1011.48 1011.17 1010.76 1010.27 1009.72 1009.12 1008.51 1007.89 1007.28 1006.67 1006.06 1005.44 1004.80 1004.12 1003.41 1002.67 1001.91 1001.16 1000.45 999.81 999.28 998.91 998.71 998.69 998.88 999.24 999.76 1000.39 1001.09 1001.83 1002.55 1003.23 1003.85 1004.41 1004.91 1005.36 1005.81 1006.26 1006.75 1007.29 1007.88
1011.90 1011.79 1011.59 1011.27 1010.85 1010.32 1009.73 1009.08 1008.41 1007.74 1007.09 1006.46 1005.86 1005.28 1004.69 1004.10 1003.47 1002.80 1002.09 1001.36 1000.63 999.93 999.29 998.77 998.39 998.18 998.16 998.33 998.68 999.17 999.78 1000.46 1001.17 1001.86 1002.50 1003.09 1003.61 1004.08 1004.51 1004.94 1005.39 1005.88 1006.43 1007.04
1011.73 1011.55 1011.26 1010.84 1010.31 1009.69 1009.00 1008.28 1007.55 1006.85 1006.18 1005.55 1004.96 1004.40 1003.85 1003.28 1002.68 1002.04 1001.36 1000.65 999.94 999.26 998.64 998.13 997.76 997.56 997.54 997.72 998.07 998.56 999.16 999.82 1000.51 1001.17 1001.80 1002.36 1002.85 1003.30 1003.72 1004.14 1004.58 1005.08 1005.65 1006.28
1011.38 1011.11 1010.73 1010.22 1009.60 1008.91 1008.16 1007.40 1006.64 1005.92 1005.25 1004.63 1004.06 1003.51 1002.97 1002.41 1001.82 1001.19 1000.53 999.83 999.13 998.47 997.87 997.38 997.04 996.86 996.87 997.07 997.43 997.93 998.53 999.18 999.86 1000.51 1001.12 1001.66 1002.15 1002.59 1003.01 1003.43 1003.88 1004.39 1004.97 1005.62
1010.85 1010.50 1010.03 1009.46 1008.78 1008.05 1007.28 1006.50 1005.75 1005.04 1004.38 1003.77 1003.20 1002.65 1002.11 1001.55 1000.96 1000.32 999.65 998.96 998.28 997.63 997.05 996.60 996.29 996.14 996.18 996.41 996.79 997.30 997.91 998.57 999.24 999.89 1000.49 1001.03 1001.51 1001.96 1002.39 1002.82 1003.29 1003.82 1004.42 1005.08
1010.17 1009.74 1009.21 1008.59 1007.89 1007.14 1006.38 1005.62 1004.90 1004.21 1003.58 1002.98 1002.42 1001.87 1001.32 1000.74 1000.13 999.49 998.81 998.12 997.44 996.81 996.27 995.85 995.58 995.48 995.56 995.81 996.22 996.75 997.36 998.01 998.68 999.32 999.92 1000.46 1000.95 1001.41 1001.85 1002.31 1002.81 1003.36 1003.97 1004.65
1009.34 1008.85 1008.27 1007.63 1006.93 1006.20 1005.47 1004.76 1004.08 1003.44 1002.83 1002.26 1001.71 1001.16 1000.59 1000.00 999.37 998.71 998.03 997.35 996.69 996.10 995.60 995.23 995.01 994.96 995.07 995.36 995.78 996.31 996.92 997.57 998.22 998.84 999.43 999.97 1000.46 1000.93 1001.39 1001.88 1002.40 1002.97 1003.61 1004.30
1008.39 1007.84 1007.24 1006.59 1005.91 1005.23 1004.55 1003.89 1003.27 1002.67 1002.11 1001.56 1001.02 1000.47 999.90 999.30 998.67 998.02 997.35 996.70 996.08 995.54 995.10 994.79 994.63 994.63 994.78 995.09 995.53 996.05 996.64 997.26 997.88 998.48 999.04 999.56 1000.05 1000.52 1001.00 1001.50 1002.05 1002.64 1003.29 1004.00
Thickness
5626 5631 5627 5629 5634 5631 5623 5625 5622 5642 5647 5677 5681 5665 5661 5659 5656 5652 5648 5640 5629 5620 5610 5598 5586 5575 5564 5552 5538 5523 5507 5491 5477 5461 5444 5427 5411 5395 5379 5363 5348 5334 5319 5304
5621 5628 5621 5620 5636 5637 5633 5632 5633 5640 5651 5681 5668 5657 5653 5652 5648 5646 5644 5639 5631 5620 5608 5597 5587 5576 5564 5551 5537 5521 5506 5491 5475 5457 5440 5424 5409 5393 5377 5362 5347 5332 5318 5304
5604 5615 5615 5620 5646 5643 5634 5634 5634 5635 5654 5665 5653 5649 5648 5649 5645 5641 5640 5637 5629 5621 5611 5602 5591 5579 5566 5553 5536 5519 5504 5489 5472 5456 5439 5423 5408 5392 5376 5361 5345 5331 5317 5304
5585 5601 5600 5643 5655 5647 5638 5641 5638 5640 5649 5648 5646 5645 5643 5641 5637 5637 5636 5632 5627 5620 5610 5602 5591 5577 5563 5547 5531 5516 5502 5486 5470 5453 5438 5422 5406 5391 5376 5360 5345 5331 5317 5305
5575 5580 5597 5628 5644 5638 5629 5634 5645 5639 5643 5643 5638 5632 5638 5643 5638 5634 5632 5628 5624 5617 5608 5598 5585 5572 5555 5541 5526 5512 5499 5485 5469 5453 5436 5420 5405 5390 5375 5359 5345 5331 5318 5306
5564 5567 5583 5628 5640 5636 5627 5624 5645 5635 5632 5630 5621 5613 5628 5639 5635 5628 5623 5618 5613 5607 5598 5589 5578 5563 5548 5536 5522 5512 5500 5486 5469 5451 5436 5420 5405 5390 5375 5360 5346 5333 5320 5307
5563 5559 5589 5624 5627 5622 5610 5622 5640 5631 5624 5619 5608 5612 5622 5625 5621 5617 5613 5609 5604 5595 5588 5583 5569 5553 5542 5533 5524 5515 5499 5482 5465 5449 5433 5418 5403 5388 5374 5360 5346 5333 5320 5308
5555 5548 5584 5623 5611 5610 5620 5629 5625 5622 5617 5610 5607 5608 5609 5609 5608 5606 5603 5600 5594 5585 5582 5573 5558 5545 5538 5533 5526 5509 5493 5477 5461 5446 5430 5416 5400 5386 5373 5359 5345 5332 5319 5307
5582 5599 5617 5612 5614 5617 5611 5607 5608 5606 5605 5600 5596 5598 5600 5598 5599 5597 5594 5590 5584 5576 5571 5562 5549 5541 5536 5532 5516 5500 5486 5472 5457 5442 5427 5413 5399 5385 5372 5359 5345 5333 5320 5308
5574 5592 5601 5603 5601 5601 5598 5594 5597 5596 5594 5591 5586 5589 5588 5589 5588 5586 5584 5579 5573 5564 5558 5554 5544 5535 5532 5522 5507 5493 5479 5465 5451 5436 5423 5410 5397 5385 5373 5360 5347 5334 5322 5310
5572 5586 5586 5594 5594 5593 5592 5589 5587 5588 5585 5580 5576 5576 5577 5577 5576 5574 5569 5566 5560 5553 5550 5548 5539 5530 5521 5511 5499 5486 5474 5461 5447 5434 5421 5408 5397 5386 5375 5364 5351 5337 5324 5311
5576 5584 5574 5580 5585 5583 5579 5578 5577 5575 5574 5572 5565 5563 5563 5562 5560 5556 5553 5551 5547 5543 5540 5539 5531 5523 5513 5502 5492 5481 5469 5457 5445 5432 5419 5407 5395 5383 5375 5364 5353 5342 5330 5315
5574 5575 5570 5571 5571 5568 5565 5564 5563 5560 5557 5554 5553 5549 5546 5543 5542 5540 5539 5538 5536 5535 5533 5529 5523 5516 5507 5495 5485 5476 5468 5457 5445 5432 5419 5407 5395 5383 5372 5362 5353 5343 5332 5320
5563 5559 5556 5556 5554 5553 5550 5548 5545 5542 5539 5536 5534 5532 5529 5527 5528 5527 5528 5528 5527 5526 5524 5520 5515 5510 5501 5491 5480 5471 5462 5454 5443 5431 5419 5408 5396 5385 5374 5362 5349 5339 5330 5320
5549 5546 5543 5541 5537 5534 5531 5528 5526 5524 5523 5522 5520 5517 5515 5514 5515 5517 5519 5518 5517 5515 5514 5510 5506 5502 5494 5485 5476 5466 5457 5449 5439 5427 5416 5406 5395 5383 5372 5362 5350 5339 5326 5316
5534 5529 5525 5522 5519 5516 5514 5512 5510 5509 5508 5507 5506 5506 5504 5503 5505 5507 5508 5507 5504 5506 5505 5501 5498 5495 5487 5478 5469 5460 5452 5445 5435 5422 5412 5401 5391 5381 5371 5361 5350 5338 5327 5316
5518 5515 5512 5507 5505 5502 5500 5497 5496 5495 5495 5495 5495 5495 5494 5495 5497 5499 5500 5498 5494 5494 5493 5490 5489 5485 5478 5471 5462 5454 5446 5438 5431 5418 5407 5399 5390 5380 5370 5360 5350 5339 5328 5317
5507 5503 5500 5496 5492 5490 5489 5488 5486 5485 5485 5486 5486 5485 5485 5485 5487 5488 5488 5487 5485 5484 5483 5480 5477 5472 5467 5460 5453 5447 5439 5431 5424 5414 5404 5395 5387 5378 5368 5359 5349 5339 5328 5317
5493 5490 5487 5484 5481 5478 5477 5477 5476 5476 5477 5477 5476 5476 5476 5475 5474 5475 5474 5471 5470 5472 5474 5468 5466 5460 5454 5449 5443 5436 5429 5423 5417 5408 5399 5392 5384 5374 5365 5357 5349 5339 5328 5317
5480 5478 5476 5473 5471 5468 5467 5468 5469 5470 5470 5467 5466 5467 5467 5467 5465 5463 5461 5459 5459 5458 5459 5454 5450 5445 5441 5436 5433 5425 5419 5413 5408 5402 5394 5388 5382 5373 5365 5357 5348 5339 5329 5318
5469 5468 5465 5464 5464 5463 5462 5461 5461 5461 5460 5457 5455 5456 5457 5457 5454 5450 5448 5452 5455 5449 5445 5443 5437 5433 5428 5424 5421 5413 5407 5403 5399 5394 5389 5383 5378 5371 5363 5356 5348 5339 5330 5319
5460 5459 5459 5457 5457 5458 5456 5453 5451 5451 5451 5450 5448 5446 5446 5446 5445 5442 5439 5436 5439 5436 5431 5427 5422 5419 5415 5412 5407 5401 5396 5392 5390 5387 5382 5378 5374 5369 5362 5355 5347 5340 5330 5320
5451 5450 5449 5448 5448 5448 5447 5445 5444 5443 5443 5442 5440 5438 5436 5435 5432 5428 5431 5430 5423 5420 5416 5412 5409 5407 5403 5398 5393 5390 5386 5383 5381 5379 5377 5374 5371 5366 5361 5354 5347 5339 5329 5319
5442 5440 5439 5438 5437 5437 5439 5442 5439 5438 5436 5434 5432 5429 5426 5425 5425 5420 5415 5414 5410 5407 5402 5399 5397 5395 5392 5386 5382 5379 5377 5375 5373 5372 5370 5368 5365 5362 5357 5352 5344 5337 5328 5319
5431 5430 5429 5429 5430 5432 5434 5435 5434 5433 5432 5431 5429 5425 5419 5415 5412 5412 5407 5402 5399 5395 5391 5389 5387 5385 5381 5378 5375 5372 5370 5368 5366 5365 5365 5363 5361 5358 5353 5348 5342 5335 5327 5318
5423 5424 5425 5424 5424 5425 5427 5427 5428 5428 5427 5428 5427 5422 5417 5413 5409 5406 5402 5398 5392 5388 5384 5380 5377 5376 5374 5372 5370 5368 5365 5363 5362 5362 5361 5359 5357 5354 5350 5345 5340 5333 5326 5317
5417 5417 5418 5420 5421 5420 5420 5420 5420 5421 5420 5419 5420 5419 5414 5411 5407 5403 5399 5394 5389 5384 5379 5375 5372 5369 5368 5367 5366 5364 5362 5360 5360 5359 5358 5356 5353 5351 5347 5342 5337 5331 5324 5316